Location: Ablon
(48.7273°N, 2.4269°E)
Time: 19:19:21
(UTC+00:00)

Daily predictions for brighter satellites

Satellite Brightness Start Highest point End
(mag) Time Altitude Azimuth Time Altitude Azimuth Time Altitude Azimuth
Cosmos 2218 Rocket 4.0 17:20:14 10° S 17:26:25 68° E 17:32:44 10° NNE
Cosmos 1656 3.7 17:26:43 10° SSW 17:32:15 86° ESE 17:37:45 10° NNE
SL-8 Rocket 4.1 17:26:06 10° S 17:32:26 86° E 17:38:48 10° N
X-37B 2.7 17:31:09 10° SSW 17:33:11 16° SSE 17:35:15 10° ESE
Genesis I 3.4 17:30:50 10° NNW 17:34:54 58° NE 17:38:55 10° SE
deb Chang Zheng 4 3.5 17:31:51 10° SSE 17:36:03 81° ENE 17:40:17 10° NNW
ARGOS 3.4 17:31:55 10° SE 17:37:02 46° ENE 17:42:11 10° N
Cosmos 405 2.9 17:36:09 10° S 17:39:35 88° W 17:43:02 10° N
SME Rocket 4.0 17:38:02 10° N 17:41:48 53° WNW 17:46:29 10° SW
Cosmos 1697 Rocket 2.8 17:36:32 10° S 17:42:02 54° ESE 17:47:32 10° NE
Cosmos 1125 Rocket 4.0 17:37:25 10° S 17:42:16 39° ESE 17:47:07 10° NE
Cosmos 1908 4.0 17:42:36 10° SSE 17:46:00 30° E 17:49:27 10° NNE
Cosmos 1607 4.0 17:40:16 10° NW 17:46:35 65° NE 17:52:44 10° SE
Cosmos 1356 3.3 17:44:04 10° NNW 17:47:29 88° ENE 17:50:52 10° SSE
Cosmos 2098 4.5 17:44:51 10° SSE 17:47:42 42° E 17:50:39 10° NNE
Cosmos 2227 Rocket 2.8 17:43:34 10° NNW 17:49:11 63° WSW 17:54:45 10° SSE
Iridium 4 Rocket 4.1 17:47:32 10° NNE 17:51:11 25° ENE 17:55:01 10° SE
SJ-11-01 4.3 17:47:36 10° SSE 17:52:12 60° ENE 17:56:51 10° N
Cosmos 494 Rocket 3.9 17:47:01 10° NNW 17:52:17 78° ENE 17:57:28 10° SSE
Landsat 5 3.7 17:48:44 10° NNE 17:52:58 54° E 17:57:18 10° S
Gbstr 26 Del rocket 4.4 17:47:10 10° WNW 17:54:08 77° NNE 18:01:28 13° E
MOS 1-B Rocket 4.3 17:47:58 10° NNE 17:54:59 53° E 18:00:58 10° S
CZ-2C R/B 2.9 17:49:44 10° NNE 17:55:15 53° E 18:00:41 10° S
SKYMED 2 3.6 17:51:37 10° NNE 17:55:58 62° ESE 18:00:15 10° S
Timation 2 Rocket 4.4 17:49:09 10° NNW 17:56:03 78° WSW 18:02:47 10° SSE
Cosmos 1726 3.7 17:55:33 10° SW 17:58:56 37° WNW 18:02:20 10° N
Cosmos 1844 Rocket 4.5 17:57:02 10° N 18:00:09 15° NNE 18:02:41 11° ENE
Cosmos 1470 3.9 17:57:03 10° SSW 18:00:54 49° WNW 18:04:47 10° N
USA 215 3.9 17:55:14 10° ENE 18:01:29 50° NNW 18:07:46 10° W
Okean O Rocket 1.6 17:58:27 10° SSE 18:02:48 86° WSW 18:07:11 10° NNW
Cosmos 2084 Rocket 3.5 17:59:14 10° SW 18:03:05 68° NW 18:07:01 10° NE
Meteor 1-16 Rocket 4.5 18:00:00 10° SSE 18:05:40 50° E 18:11:18 10° NNE
Cosmos 2123 Rocket 4.4 17:59:56 10° N 18:05:57 42° ENE 18:11:53 10° SE
Cosmos 1703 3.4 18:03:39 10° N 18:07:31 51° ENE 18:11:20 10° SSE
Cosmos 1758 3.6 18:03:46 10° SSW 18:07:45 72° W 18:11:45 10° N
CZ-4 R/B 1.6 18:05:13 10° SE 18:09:01 48° ENE 18:12:55 10° N
YAOGAN 1 2.7 18:05:38 10° SE 18:09:48 50° ENE 18:14:00 10° N
SL-16 R/B 4.0 18:07:54 10° SE 18:08:50 12° ESE 18:08:50 12° ESE
Okean-O 3.3 18:07:41 10° SE 18:11:33 32° ENE 18:15:31 10° N
Cosmos 1455 Rocket 3.4 18:10:09 10° SSE 18:14:18 42° E 18:18:30 10° NNE
Cosmos 2082 3.9 18:08:46 10° NNW 18:14:25 77° WSW 18:20:01 10° SSE
Spot 2 3.9 18:13:57 10° SSE 18:18:00 83° ENE 18:22:15 10° NNW
Cosmos 1953 2.3 18:14:24 10° S 18:18:23 62° E 18:22:24 10° NNE
H-2A R/B 2.6 18:15:26 10° NNE 18:19:09 32° E 18:22:52 10° SSE
Cosmos 1727 Rocket 4.4 18:13:42 10° NNW 18:19:54 68° W 18:26:01 10° S
Okean 1-7 Rocket 4.0 18:16:43 10° N 18:20:53 39° ENE 18:24:34 13° SE
Cosmos 2150 Rocket 4.1 18:16:20 10° SSW 18:21:47 89° ESE 18:27:13 10° NNE
Cosmos 1328 4.2 18:18:06 10° N 18:21:57 42° ENE 18:25:11 14° SE
Meteor 1-21 Rocket 4.3 18:17:08 10° NNW 18:22:59 88° ENE 18:28:54 10° S
Cosmos 1544 Rocket 4.1 18:23:32 10° SSE 18:27:34 35° E 18:31:37 10° NNE
H-2A R/B 3.4 18:27:01 10° S 18:32:05 43° W 18:37:17 10° NNW
ATLAS 3B R/B 2.9 18:28:28 10° SW 18:35:01 73° NW 18:41:57 10° NE
Cosmos 1300 4.5 18:32:11 10° SSE 18:38:01 18° NE 18:39:11 10° NNE
Lacrosse 4 Rocket 3.0 18:32:39 10° N 18:35:48 20° NE 18:36:04 20° NE
Cosmos 405 Rocket 2.7 18:33:13 10° N 18:37:10 87° E 18:41:08 10° S
OBJECT-B 3.1 18:39:31 14° NNE 18:39:31 14° NNE 18:40:06 10° NNE
COSMO-SKYMED 1 3.8 18:39:52 10° N 18:44:01 44° WNW 18:48:08 10° SW
OPS 6432 4.0 18:42:02 10° NW 18:45:00 85° NE 18:45:27 63° SE
ATLAS 5 CENTAUR R/B 1.6 18:41:21 10° SSW 18:45:06 47° ESE 18:45:39 44° E
Cosmos 1602 Rocket 4.1 18:45:08 10° N 18:48:53 36° ENE 18:48:53 36° ENE
Cosmos 2227 4.2 18:46:06 10° NNW 18:51:53 73° ENE 18:55:04 28° SE
Cosmos 2369 4.0 18:47:26 10° SW 18:53:03 69° WNW 18:58:46 10° NNE
HJ-1C 3.8 18:51:07 16° S 18:53:34 60° W 18:56:48 10° NNW
IRS-1C Rocket 4.1 18:51:51 10° SSE 18:57:07 82° WSW 19:02:26 10° NNW
H-2A R/B 3.8 18:53:49 10° S 18:58:00 42° W 19:02:05 10° NNW
Cosmos 1605 Rocket 4.0 18:52:05 10° SSE 18:58:06 54° E 19:04:14 10° NNE
In-Cosmos 22 Rocket 4.4 18:54:11 10° N 18:59:18 43° ENE 18:59:43 42° E
CENTAUR R/B 4.4 18:54:40 10° WNW 19:00:26 26° N 19:06:08 13° NE
USA 186 4.2 19:04:37 14° N 19:04:37 14° N 19:05:12 10° N
Cosmos 1174 4.0 18:59:38 10° SW 19:02:45 46° NW 19:03:08 43° NNW
Cosmos 1535 Rocket 4.4 18:56:36 10° S 19:02:49 78° E 19:09:10 10° NNE
Cosmos 1980 Rocket 2.5 19:01:34 10° SW 19:07:13 69° WNW 19:12:56 10° NNE
Meteor 2-10 Rocket 3.9 19:03:24 10° SSE 19:09:27 45° ENE 19:14:05 10° NNE
Cosmos 2263 Rocket 2.3 19:03:43 10° NNW 19:09:16 71° WSW 19:12:46 23° SSE
X-37B 2.4 19:06:21 10° WSW 19:08:08 26° SW 19:08:08 26° SW
Cosmos 1269 Rocket 4.2 19:05:54 10° NNW 19:11:12 70° WSW 19:14:30 23° S
CSL-04 Debris 4.1 19:08:41 18° SSE 19:12:49 84° WSW 19:18:16 10° NNW
SJ-6B 4.2 19:21:19 29° N 19:21:19 29° N 19:23:21 10° N
Cosmos 614 Rocket 4.4 19:19:55 10° NNW 19:24:03 45° NNE 19:24:03 45° NNE
Cosmos 2251 Rocket 3.9 19:20:04 10° NNW 19:24:31 46° NE 19:24:31 46° NE
Cosmos 1697 Rocket 4.4 19:21:17 10° WSW 19:26:17 31° NW 19:31:19 10° NNE
Cosmos 1626 Rocket 3.8 19:23:17 10° NNW 19:27:36 65° W 19:28:12 57° SW
Cosmos 371 Rocket 4.4 19:26:18 10° SSW 19:28:53 32° SSW 19:28:53 32° SSW
CSL-04 Rocket 4.0 19:30:11 23° S 19:33:38 64° WSW 19:39:10 10° NNW
Cosmos 2278 4.3 19:31:19 10° SW 19:36:53 55° WNW 19:42:30 10° NNE
Ariane Rocket 4.0 19:41:05 34° NNE 19:41:05 34° NNE 19:44:14 10° N
Orbus 7S? 4.0 19:33:39 10° WNW 19:41:55 78° N 19:41:55 78° N
USA 215 3.9 19:42:03 36° NE 19:43:50 44° N 19:49:58 10° WNW
CZ-4 R/B 4.1 19:41:37 10° SW 19:44:17 17° W 19:47:00 10° NW
Cosmos 1844 Rocket 3.1 19:39:51 10° NNW 19:44:21 48° NNE 19:44:21 48° NNE
Cosmos 2278 Rocket 4.2 19:44:02 10° N 19:46:37 16° NNE 19:46:37 16° NNE
Okean-O 4.3 19:45:17 17° SSW 19:48:01 31° W 19:51:58 10° NNW
SL-16 R/B 3.5 19:48:22 10° SSW 19:50:51 27° SSW 19:50:51 27° SSW
H-2A R/B 4.0 19:51:34 10° N 19:55:02 27° WNW 19:58:30 10° WSW
Resurs 01 Rocket 4.0 20:03:55 16° N 20:03:55 16° N 20:04:53 10° N
SeaSat 1 4.4 20:14:12 21° N 20:14:12 21° N 20:16:07 10° NNW
Cosmos 1844 4.4 20:05:55 10° NNW 20:10:05 47° N 20:10:05 47° N
Cosmos 2344 4.2 20:03:28 10° NW 20:12:33 82° SW 20:15:56 53° SSE
Lacrosse 4 Rocket 3.6 20:10:39 10° NW 20:12:21 23° NW 20:12:21 23° NW
ATLAS 3B R/B 4.3 20:21:09 10° W 20:26:54 29° NNW 20:30:33 19° NNE
ATLAS 5 CENTAUR R/B 4.1 20:26:14 10° W 20:27:13 16° W 20:27:13 16° W
CENTAUR R/B 4.1 20:46:45 10° NW 20:53:18 34° NNE 20:53:18 34° NNE
